Weather History for Stanley, ND

Change the Weather History Date:

Friday, February 8, 2013

  Actual Average (KMOT) Record (KMOT)
Temperature  
Mean Temperature 24 °F 15 °F  
Max Temperature 26 °F 24 °F 53 °F (2000)
Min Temperature 23 °F 7 °F -38 °F (1939)
Degree Days  
Heating Degree Days 40 50  
Month to date heating degree days 405  
Since 1 July heating degree days 5637  
Moisture  
Dew Point 25 °F    
Average Humidity 100    
Maximum Humidity 100    
Minimum Humidity 100    
Precipitation  
Precipitation 0.01 in 0.02 in 0.11 in (1974)
Month to date precipitation 0.11  
Year to date precipitation 0.62  
Sea Level Pressure  
Sea Level Pressure 29.93 in    
Wind  
Wind Speed 10 mph (SSW)    
Max Wind Speed 23 mph    
Max Gust Speed 46 mph    
Visibility 3 miles    
Events Fog , Snow    
T = Trace of Precipitation, MM = Missing Value Source: NWS Daily Summary

Daily Weather History Graph

Daily Weather History Graph

Search for Another Location

Airport:

Trip Planner

Search our weather history database for the weather conditions in past years. The results will help you decide how hot, cold, wet, or windy it might be!

Date:

Astronomy

Feb. 08, 2013 Rise Set
Actual Time 8:07 AM CST 6:00 PM CST
Civil Twilight 7:34 AM CST 6:33 PM CST
Nautical Twilight 6:57 AM CST 7:10 PM CST
Astronomical Twilight 6:21 AM CST 7:46 PM CST
Moon 6:41 AM CST (2/8) 4:34 PM CST (2/8)
Length of Visible Light 10h 58m
Length of Day
9h 53m
Waning Crescent, 3% of the Moon is Illuminated
Feb 8
Waning Crescent
Feb 10
New
Feb 17
First Quarter
Feb 25
Full
Mar 4
Last Quarter

Hourly Weather History & Observations

Time (CST) Temp. Windchill Dew Point Humidity Pressure Visibility Wind Dir Wind Speed Gust Speed Precip Events Conditions
12:15 AM 24.8 °F 15.3 °F 24.8 °F 100% 30.02 in 0.2 mi South 9.2 mph - N/A Fog Light Freezing Fog
12:35 AM 24.8 °F 14.6 °F 24.8 °F 100% 30.02 in 0.2 mi SSE 10.4 mph - N/A Fog Light Freezing Fog
12:55 AM 24.8 °F 13.4 °F 24.8 °F 100% 30.02 in 0.2 mi SSE 12.7 mph - N/A Fog Light Freezing Fog
1:15 AM 24.8 °F 15.3 °F 24.8 °F 100% 30.02 in 0.2 mi SSE 9.2 mph - N/A Fog Light Freezing Fog
1:35 AM 24.8 °F 16.9 °F 24.8 °F 100% 30.01 in 0.2 mi SE 6.9 mph - N/A Fog Light Freezing Fog
1:55 AM 24.8 °F - 24.8 °F 100% 30.01 in 0.2 mi North - - N/A Fog Light Freezing Fog
2:15 AM 26.6 °F 14.7 °F 26.6 °F 100% 30.01 in 0.2 mi ESE 15.0 mph 28.8 mph N/A Fog Light Freezing Fog
2:35 AM 26.6 °F 14.7 °F 26.6 °F 100% 30.00 in 0.2 mi SSE 15.0 mph 27.6 mph N/A Fog Light Freezing Fog
2:55 AM 26.6 °F 18.2 °F 26.6 °F 100% 30.00 in 0.2 mi SSE 8.1 mph - N/A Fog Light Freezing Fog
3:35 AM 26.6 °F - 26.6 °F 100% 29.99 in 0.5 mi North - - N/A Fog Light Freezing Fog
3:55 AM 26.6 °F - 26.6 °F 100% 29.99 in 0.5 mi North - - N/A Fog Light Freezing Fog
4:15 AM 26.6 °F - 26.6 °F 100% 29.98 in 0.5 mi North - - N/A Fog Light Freezing Fog
4:35 AM 26.6 °F - 26.6 °F 100% 29.97 in 0.2 mi North - - N/A Fog Light Freezing Fog
4:55 AM 24.8 °F 17.9 °F 24.8 °F 100% 29.97 in 0.2 mi SE 5.8 mph 34.5 mph N/A Fog Light Freezing Fog
5:15 AM 24.8 °F 10.7 °F 24.8 °F 100% 29.97 in 0.5 mi South 19.6 mph 26.5 mph N/A Fog Light Freezing Fog
5:35 AM 24.8 °F - 24.8 °F 100% 29.96 in 0.2 mi North - - N/A Fog Light Freezing Fog
5:55 AM 24.8 °F - 24.8 °F 100% 29.96 in 0.5 mi North - - N/A Fog Light Freezing Fog
6:15 AM 24.8 °F - 24.8 °F 100% 29.96 in 0.8 mi North - - N/A   Overcast
6:35 AM 24.8 °F - 24.8 °F 100% 29.95 in 0.2 mi North - - N/A Fog Light Freezing Fog
6:55 AM 24.8 °F - 24.8 °F 100% 29.95 in 0.5 mi North - - N/A Fog Light Freezing Fog
7:15 AM 24.8 °F 10.3 °F 24.8 °F 100% 29.95 in 0.8 mi South 20.7 mph 25.3 mph N/A   Overcast
7:35 AM 24.8 °F - 24.8 °F 100% 29.96 in 0.8 mi North - - N/A   Overcast
7:55 AM 24.8 °F 11.1 °F 24.8 °F 100% 29.95 in 0.2 mi SSE 18.4 mph 28.8 mph N/A Fog Light Freezing Fog
8:15 AM 24.8 °F 11.1 °F 24.8 °F 100% 29.95 in 0.2 mi SSE 18.4 mph 32.2 mph N/A Fog Light Freezing Fog
8:35 AM 23.0 °F 9.2 °F 23.0 °F 100% 29.95 in 0.2 mi South 17.3 mph 39.1 mph N/A Fog Light Freezing Fog
8:55 AM 23.0 °F 8.7 °F 23.0 °F 100% 29.95 in 0.5 mi South 18.4 mph 31.1 mph N/A Fog Light Freezing Fog
9:15 AM 23.0 °F 7.2 °F 23.0 °F 100% 29.95 in 1.2 mi South 23.0 mph 33.4 mph N/A   Overcast
9:35 AM 23.0 °F - 23.0 °F 100% 29.95 in 0.8 mi North - - N/A   Overcast
9:55 AM 23.0 °F 11.7 °F 23.0 °F 100% 29.94 in 0.8 mi South 11.5 mph 29.9 mph N/A   Overcast
10:15 AM 23.0 °F 9.2 °F 23.0 °F 100% 29.94 in - South 17.3 mph 46.0 mph N/A   Overcast
10:35 AM 23.0 °F 11.7 °F 23.0 °F 100% 29.94 in - South 11.5 mph 19.6 mph N/A   Overcast
10:55 AM 23.0 °F - 23.0 °F 100% 29.95 in - North - - N/A   Overcast
11:15 AM 24.8 °F 12.9 °F 24.8 °F 100% 29.94 in - South 13.8 mph 46.0 mph N/A   Overcast
11:35 AM 24.8 °F 15.3 °F 24.8 °F 100% 29.94 in - South 9.2 mph - N/A   Overcast
11:55 AM 24.8 °F - 24.8 °F 100% 29.94 in - North - - N/A   Overcast
12:15 PM 24.8 °F 12.4 °F 24.8 °F 100% 29.93 in - South 15.0 mph 33.4 mph N/A   Overcast
12:35 PM 24.8 °F 11.9 °F 24.8 °F 100% 29.93 in - South 16.1 mph 24.2 mph N/A   Overcast
12:55 PM 24.8 °F 14.0 °F 24.8 °F 100% 29.92 in - SSW 11.5 mph - N/A   Overcast
1:15 PM 26.6 °F 18.2 °F 26.6 °F 100% 29.91 in - SSW 8.1 mph - N/A   Overcast
1:35 PM 26.6 °F 20.0 °F 26.6 °F 100% 29.91 in - SSW 5.8 mph - N/A   Overcast
1:55 PM 26.6 °F 20.0 °F 26.6 °F 100% 29.90 in 10.0 mi South 5.8 mph - N/A   Overcast
2:15 PM 26.6 °F 19.1 °F 26.6 °F 100% 29.90 in 10.0 mi SSW 6.9 mph - N/A   Overcast
2:35 PM 26.6 °F 19.1 °F 26.6 °F 100% 29.90 in 3.0 mi SW 6.9 mph - 0.01 in Snow Light Snow
2:55 PM 26.6 °F 20.0 °F 26.6 °F 100% 29.89 in 10.0 mi WSW 5.8 mph - 0.01 in   Overcast
3:15 PM 26.6 °F 21.2 °F 26.6 °F 100% 29.88 in 10.0 mi West 4.6 mph - N/A   Overcast
3:35 PM 26.6 °F 20.0 °F 26.6 °F 100% 29.89 in 10.0 mi SW 5.8 mph - N/A   Overcast
3:55 PM 26.6 °F - 26.6 °F 100% 29.89 in 10.0 mi Calm Calm - N/A   Overcast
4:15 PM 26.6 °F 22.6 °F 26.6 °F 100% 29.89 in 10.0 mi WSW 3.5 mph - N/A   Overcast
4:35 PM 26.6 °F 19.1 °F 26.6 °F 100% 29.89 in 10.0 mi WSW 6.9 mph - N/A   Overcast
4:55 PM 26.6 °F - 26.6 °F 100% 29.89 in 10.0 mi Calm Calm - N/A   Overcast
5:15 PM 26.6 °F - 26.6 °F 100% 29.88 in 10.0 mi Calm Calm - N/A   Overcast
5:35 PM 26.6 °F 22.6 °F 26.6 °F 100% 29.87 in 10.0 mi WNW 3.5 mph - N/A   Overcast
5:55 PM 26.6 °F 21.2 °F 26.6 °F 100% 29.87 in 10.0 mi WNW 4.6 mph - N/A   Overcast
6:15 PM 26.6 °F - 26.6 °F 100% 29.88 in 10.0 mi Calm Calm - N/A   Overcast
6:35 PM 26.6 °F 20.0 °F 26.6 °F 100% 29.88 in 10.0 mi WNW 5.8 mph - N/A   Overcast
6:55 PM 24.8 °F - 24.8 °F 100% 29.88 in 9.0 mi Calm Calm - N/A   Overcast
7:15 PM 24.8 °F 19.1 °F 24.8 °F 100% 29.88 in 4.0 mi WSW 4.6 mph - N/A   Overcast
7:35 PM 24.8 °F - 24.8 °F 100% 29.89 in 3.0 mi Calm Calm - N/A   Overcast
7:55 PM 24.8 °F 16.9 °F 24.8 °F 100% 29.89 in 3.0 mi SW 6.9 mph - N/A   Overcast
8:15 PM 24.8 °F 16.1 °F 24.8 °F 100% 29.89 in 2.0 mi SW 8.1 mph - N/A   Overcast
8:35 PM 24.8 °F 16.9 °F 24.8 °F 100% 29.89 in 1.2 mi SW 6.9 mph - N/A   Overcast
8:55 PM 24.8 °F 16.1 °F 24.8 °F 100% 29.89 in 1.0 mi SW 8.1 mph - N/A   Overcast
9:15 PM 24.8 °F 16.1 °F 24.8 °F 100% 29.89 in 1.5 mi WSW 8.1 mph - N/A   Overcast
9:35 PM 24.8 °F 14.0 °F 24.8 °F 100% 29.89 in 1.8 mi WSW 11.5 mph - N/A   Overcast
9:55 PM 24.8 °F 16.1 °F 24.8 °F 100% 29.89 in 3.0 mi West 8.1 mph - N/A   Overcast
10:15 PM 24.8 °F 15.3 °F 24.8 °F 100% 29.89 in 3.0 mi WSW 9.2 mph - N/A   Overcast
10:35 PM 24.8 °F 16.1 °F 24.8 °F 100% 29.89 in 5.0 mi WSW 8.1 mph - N/A   Overcast
10:55 PM 24.8 °F 17.9 °F 24.8 °F 100% 29.89 in 3.0 mi West 5.8 mph - N/A   Overcast
11:15 PM 24.8 °F 17.9 °F 24.8 °F 100% 29.89 in 2.0 mi West 5.8 mph - N/A   Overcast
11:35 PM 24.8 °F 16.1 °F 24.8 °F 100% 29.88 in 0.8 mi West 8.1 mph - N/A   Overcast
11:55 PM 24.8 °F 16.1 °F 24.8 °F 100% 29.88 in 0.8 mi WNW 8.1 mph - N/A   Overcast